Regional Weather Roundup
Issued by NWS

Home | Current Version | Previous Version | Text Only | Print | Product List | Glossary On
Versions: 1 2 3 4 5 6 7 8 9 10 11 12 13 14 15 16 17 18 19 20 21 22 23 24 25 26 27 28 29 30 31 32 33 34 35 36 37 38 39 40 41 42 43 44 45 46 47 48 49 50
000
ASUS43 KLMK 251210
RWRKY
KENTUCKY REGIONAL WEATHER ROUNDUP
NATIONAL WEATHER SERVICE LOUISVILLE KY
800 AM EDT SAT JUN 25 2016

NOTE "FAIR" INDICATES FEW OR NO CLOUDS BELOW 12,000 FEET
WITH NO SIGNIFICANT WEATHER AND/OR OBSTRUCTIONS TO VISIBILITY.

KYZ001>023-026-027-061>063-070>075-251300-
WESTERN AND SOUTH CENTRAL KENTUCKY

CITY           SKY/WX    TMP DP  RH WIND       PRES   REMARKS
PADUCAH        CLOUDY    77  71  82 S6        30.07R
HENDERSON      SUNNY     73  66  78 CALM      30.08R
OWENSBORO      SUNNY     75  70  85 CALM      30.10R
HOPKINSVILLE   NOT AVBL
BOWLING GREEN  SUNNY     72  69  90 CALM      30.11R
GLASGOW        SUNNY     69  69  99 CALM      30.12R
$$

KYZ024-025-028>034-038-045-046-053-251300-
NORTH CENTRAL KENTUCKY

CITY           SKY/WX    TMP DP  RH WIND       PRES   REMARKS
LOUISVILLE/SDF MOSUNNY   74  67  78 CALM      30.11R
LOUISVILLE/LOU SUNNY     73  67  81 CALM      30.12R
FORT KNOX      MOSUNNY   73  68  84 NE2       30.10R
$$

KYZ035>037-039>044-047>052-055>060-089>105-251300-
NORTHEAST KENTUCKY

CITY           SKY/WX    TMP DP  RH WIND       PRES   REMARKS
LEXINGTON      SUNNY     73  68  84 NE5       30.13R
COVINGTON      NOT AVBL
FRANKFORT      SUNNY     71  66  84 CALM      30.12R
$$

KYZ054-064>069-076>088-106>120-251300-
SOUTHEAST KENTUCKY

CITY           SKY/WX    TMP DP  RH WIND       PRES   REMARKS
JACKSON        SUNNY     70  67  90 CALM      30.15R
LONDON         SUNNY     68  66  93 CALM      30.14R
SOMERSET       SUNNY     68  68 100 CALM      30.14R FOG
MIDDLESBORO    CLOUDY    68  68 100 CALM      30.15R FOG
MONTICELLO     NOT AVBL
$$




USA.gov is the U.S. government's official web portal to all federal, state and local government web resources and services.